Weather in Esfahan

Iran     32°39′38″N   51°40′38″E
temp.,
°C
wind,
m/s
gust,
m/s
humid.,
%
clouds,
%
prec.,
mm/h
press.,
hPa
HPBL,
m
26 june, sun
sun2601:30+27wnw46110 0.0 1005157
04:30+26nw33120 0.0 100623
07:30+27wsw01110 0.0 100646
10:30+32wsw2280 0.0 10051119
13:30+35s3671 0.0 10034538
16:30+37wsw77663 0.0 10005208
19:30+34w101195 0.0 10001457
22:30+30w57120 0.0 1003293
27 june, mon
mon2701:30+29wsw34140 0.0 1003141
04:30+26nw23150 0.0 100352
07:30+27wsw23140 0.0 1005126
10:30+31s12110 0.0 1004828
13:30+37ese5870 0.0 10023491
16:30+39e61050 0.0 9994745
19:30+37ese69630 0.0 9981065
22:30+33wsw5774 0.0 1001153
28 june, tue
tue2801:30+30nw3490 0.0 1002145
04:30+27wnw3380 0.0 100332
07:30+29w2290 0.0 100565
10:30+33wsw1160 0.0 1004761
13:30+38s2560 0.0 10023628
16:30+40ene56515 0.0 9995269
19:30+38ene5665 0.0 999616
22:30+34se45898 0.0 100276
29 june, wed
wed2901:30+32se4785 0.0 1003277
04:30+28ne22100 0.0 100342
07:30+30ene11100 0.0 100444
10:30+35se4570 0.0 1003994
13:30+39se7650 0.0 10013502
16:30+40ese7450 0.0 9994479
19:30+37ese91150 0.0 999989
22:30+33ese71370 0.0 1002474
30 june, thu
thu3001:30+29se2380 0.0 100387
04:30+27ne2390 0.0 100333
07:30+29e1180 0.0 100450
10:30+35ese4660 0.0 10031048
13:30+39se6650 0.0 10002986
16:30+40se7660 0.0 9983743
19:30+37se81070 0.0 999926
22:30+33ese713100 0.0 1000377